COSMOS 1130

Satellite information

Favourite Embed

Satellite Type and Status

PAYLOADIN ORBIT

Key statistics

Satellite COSMOS 1130 at a glance.

Uptime

16667

Days in orbit

Revolutions

≈ 12.6

Per day

Orbit

LEO

Low Earth Orbit

Inclination

74.0

Latest

Satellite identification and parameters

Extended collection of information and parameters for COSMOS 1130.

Object identification

Identified? True

Debris? False

Object name: COSMOS 1130

International designator: 1979-084A

Object number (NORAD): 11538

Object ID (CCSDS): 11538

Country: COMMONWEALTH OF INDEPENDENT STATES (CIS)

Current information (Y/N): Y

RCS size: MEDIUM

Orbital parameters

Period: 114.626 minutes

Inclination: 74.0249 deg

SMA: 7816.546 km

Apoapsis: 1479.914 km

Periapsis: 1396.907 km

RAAN: 238.5912 deg

Eccentricy: 0.0053097

Argument of periapsis: 335.75 deg

Mean anomaly: 96.7043 deg

Mean motion: 12.56262715 rev/day

Mean motion (dot): -0.00000018 rev/day2

B* drag term: -0.000012376 1/REarth

Two-line elements (TLE)

Creation date: May 12, 2025, 7:41 p.m.

Reference frame: TEME

Reference center: EARTH

Epoch: May 12, 2025, 11:12 a.m. UTC

TLE line 0: 0 COSMOS 1130

TLE line 1: 1 11538U 79084A 25132.46700230 -.00000018 00000-0 -12376-4 0 9995

TLE line 2: 2 11538 74.0249 238.5912 0053097 335.7500 96.7043 12.56262715 92493

Live tracking on map

Real-time ground track for satellite COSMOS 1130.

In-orbit conjunctions

A list of the most updated potential collisions computed for object COSMOS 1130.

Target Orbit TCA Probability of collision Miss distance Type
DELTA 1 DEB SSO 2024-11-13 14:11:24 0.0002552777 221.0 (m) DEBRIS

Associated space launch

Biological research satellite carrying live organisms

COSMOS 1130 was lifted into orbit during the mission ‘Soyuz U | Bion 5’, on board a Soyuz U space rocket.

The launch took place on Sept. 25, 1979, 3:30 p.m. from 41/1.

For more information about the launch, click the button.

Launch to space Soyuz U | Bion 5
Soyuz U | Bion 5

Agency: N/A

Status: Launch Successful

Launch date: Sept. 25, 1979, 3:30 p.m. UTC

Rocket: Soyuz U

Launch pad: 41/1

Location: Plesetsk Cosmodrome, Russian Federation

...

Latest news about this satellite

There are no fresh news available about this satellite. Check back as we update our databases every day.


Newsletter sign-up

Weekly statistics, charts and insights to help you stay on top of the space industry.